[[{"header":{"parameterUnit":"m.s-1","parameterCategory":1,"la1":30.2991,"la2":30.254,"lo1":-89.0895,"lo2":-89.0444,"dy":0.0017,"dx":0.0017,"nx":28,"ny":28,"refTime":"2024-04-22T03:00:00:Z","depth":0,"parameterNumber":2,"parameterNumberName":"U-component_of_WINDS"},"data":[0,0,0,0,0,0,0,0,0,0,0,0,0,0,0,0,0,0,0,0,0,0,0,0,0,0,0,0,0,0,0,0,0,0,0,0,0,0,0,0,0,0,0,0,0,0,0,0,0,0,0,0,0,0,0,0,0,0,0.8862,0.8862,0,0.8849,0.8849,0.8849,0.8864,0.8865,0.8865,0.8866,0.8849,0.8848,0.8847,0,0,0,0,0,0,0,0,0,0,0,0,0,0.8896,0.8896,0.8862,0.8862,0.8861,0.8849,0.8849,0.8849,0.8864,0.8865,0.8865,0.8866,0.8849,0.8848,0.8846,0,0,0,0,0,0,0,0,0,0,0,0,0,0.8882,0.8896,0.8862,0.8868,0.8868,0.8849,0.8849,0.8849,0.8864,0.8865,0.8866,0.8866,0.8849,0.8848,0.8846,0.882,0,0,0.8842,0.8841,0,0,0,0,0,0,0,0,0.8883,0.8881,0.8867,0.8867,0.8868,0.8859,0.8855,0.8839,0.8864,0.8865,0.8866,0.8867,0.8851,0.8849,0.8845,0.8819,0.8818,0.8842,0.8841,0.884,0.884,0,0,0,0,0,0,0,0.8884,0.8881,0.8856,0.8867,0.8867,0.887,0.8869,0.8852,0.8853,0.8865,0.8866,0.8865,0.8851,0.8846,0.8845,0.8818,0.8842,0.884,0.8839,0.8839,0.8769,0.8769,0,0,0,0,0,0,0.8885,0.8882,0.8857,0.8856,0.8878,0.8869,0.8868,0.8861,0.8854,0.8853,0.8864,0.8866,0.8849,0.8846,0.8844,0.8812,0.884,0.8839,0.8838,0.877,0.8769,0.8768,0,0,0,0,0,0,0.8885,0.8882,0.8857,0.887,0.8867,0.8867,0.886,0.886,0.8855,0.8853,0.8853,0.8859,0.8849,0.8846,0.8826,0.8812,0.8838,0.8837,0.8771,0.877,0.8769,0.8748,0,0,0,0,0,0,0.8886,0.8882,0.8873,0.8869,0.8866,0.884,0.8859,0.8859,0.8853,0.8855,0.8848,0.8847,0.885,0.8828,0.8824,0.881,0.8835,0.8773,0.8771,0.8769,0.875,0.8746,0.8743,0,0,0,0,0,0.8888,0.8866,0.8872,0.8869,0.8854,0.8839,0.8837,0.8841,0.8852,0.8842,0.884,0.8848,0.8815,0.8826,0.8822,0.8807,0.8774,0.8771,0.8769,0.8751,0.8747,0.8743,0,0,0,0,0,0,0.8866,0.8866,0.8872,0.885,0.8845,0.8842,0.8829,0.8836,0.8827,0.8829,0.8833,0.8831,0.881,0.8807,0.8819,0.8781,0.8796,0.8793,0.8783,0.8779,0.8776,0.8776,0.8834,0,0,0,0,0,0.8859,0.8848,0.8848,0.8828,0.8826,0.8828,0.8822,0.8826,0.882,0.8817,0.8814,0.8808,0.8796,0.8788,0.8776,0.8751,0.8749,0.8738,0.8735,0.8732,0.8728,0.8714,0.871,0.8761,0.8761,0.8761,0,0,0.8844,0.8842,0.8835,0.8824,0.8821,0.8808,0.8826,0.8812,0.8802,0.8815,0.8795,0.8794,0.8786,0.8763,0.8753,0.876,0.8714,0.8729,0.8727,0.8725,0.8712,0.8707,0.8703,0.876,0.876,0.876,0,0,0.8809,0.8808,0.8791,0.8788,0.8783,0.8785,0.8781,0.8778,0.8777,0.8759,0.8768,0.8757,0.8736,0.8731,0.8725,0.8691,0.8697,0.8688,0.8668,0.8654,0.865,0.8647,0.8634,0.8629,0.8685,0.8685,0.8685,0,0.879,0.8773,0.8781,0.8767,0.8762,0.8775,0.8757,0.8753,0.8745,0.874,0.8749,0.8724,0.872,0.8696,0.8688,0.8684,0.8679,0.8687,0.8651,0.8647,0.8644,0.8631,0.8626,0.8684,0.8684,0.8684,0.8684,0,0.8749,0.8738,0.8725,0.8718,0.8711,0.8695,0.87,0.8693,0.8698,0.8699,0.868,0.8676,0.8665,0.866,0.8664,0.8636,0.8641,0.865,0.8664,0.8637,0.8626,0.8621,0.8682,0.8682,0.8683,0.8683,0,0,0.8698,0.8698,0.8693,0.869,0.8687,0.8677,0.8663,0.8653,0.8646,0.8641,0.8627,0.8611,0.862,0.8614,0.8618,0.8607,0.8579,0.8617,0.8617,0.8609,0.8548,0.8539,0.8534,0.8585,0.8584,0.8583,0.8548,0,0.8663,0.8638,0.8646,0.862,0.8609,0.8623,0.861,0.8606,0.8607,0.8597,0.8598,0.8586,0.86,0.8596,0.8585,0.8585,0.8567,0.8588,0.8571,0.857,0.857,0.8528,0.8519,0.8485,0.8543,0.8543,0.8542,0,0.8617,0.8612,0.8586,0.8586,0.8581,0.8569,0.8562,0.8553,0.8549,0.8551,0.8545,0.8552,0.8537,0.8554,0.8532,0.8547,0.8541,0.8539,0.8538,0.8535,0.8553,0.8522,0.8475,0.8469,0.8535,0.8536,0.8536,0,0.8581,0.8567,0.855,0.8547,0.8547,0.8538,0.8538,0.8535,0.8529,0.8523,0.8519,0.851,0.8505,0.8498,0.8502,0.8514,0.848,0.8497,0.8479,0.8479,0.8469,0.8469,0.8419,0.8469,0.8469,0.8469,0.8469,0,0.8539,0.8522,0.8534,0.8522,0.8504,0.8514,0.8495,0.8496,0.8494,0.8483,0.8494,0.8483,0.8491,0.848,0.8484,0.8465,0.8463,0.8463,0.8464,0.8461,0.846,0.8455,0.8457,0.8467,0.8468,0.8468,0.8468,0,0.8494,0.8501,0.8483,0.8486,0.8486,0.8472,0.8473,0.8463,0.8467,0.8452,0.845,0.8454,0.8443,0.8447,0.8434,0.8437,0.8413,0.8417,0.8414,0.8414,0.8396,0.8397,0.8339,0.8331,0.8388,0.8387,0.8387,0,0.8466,0.8454,0.8456,0.845,0.8449,0.8439,0.8434,0.8444,0.8437,0.8434,0.8423,0.8414,0.8406,0.8387,0.8388,0.8379,0.8382,0.8363,0.8381,0.8378,0.838,0.838,0.8378,0.8358,0.8357,0.8357,0.8357,0,0.8415,0.842,0.8412,0.8407,0.8401,0.8396,0.8393,0.8387,0.8397,0.8389,0.8379,0.8373,0.8362,0.8351,0.8343,0.8342,0.835,0.8352,0.8347,0.8342,0.834,0.834,0.8402,0.8352,0.8352,0.8353,0.8353,0.8353,0.8376,0.8366,0.8366,0.8358,0.8357,0.8354,0.8344,0.8348,0.834,0.8332,0.8338,0.8325,0.8323,0.8314,0.8311,0.8301,0.8308,0.8302,0.83,0.8297,0.8294,0.8344,0.83,0.83,0.83,0.83,0.83,0,0.8324,0.8326,0.8319,0.8314,0.8308,0.832,0.8317,0.831,0.8299,0.8297,0.829,0.8278,0.8269,0.8271,0.8262,0.8254,0.8257,0.8251,0.825,0.825,0.8289,0.8293,0.8248,0.8248,0.8248,0.8248,0.8248,0.8248,0.8296,0.828,0.8285,0.8268,0.8269,0.8258,0.8255,0.8253,0.8251,0.8238,0.8231,0.8233,0.8232,0.8224,0.8216,0.8217,0.8212,0.8204,0.8206,0.8242,0.8247,0.8252,0.8256,0.8203,0.8203,0.8167,0.8167,0.8167]},{"header":{"parameterUnit":"m.s-1","parameterCategory":1,"la1":30.2991,"la2":30.254,"lo1":-89.0895,"lo2":-89.0444,"dy":0.0017,"dx":0.0017,"nx":28,"ny":28,"refTime":"2024-04-22T03:00:00:Z","depth":0,"parameterNumber":3,"parameterNumberName":"V-component_of_WINDS"},"data":[0,0,0,0,0,0,0,0,0,0,0,0,0,0,0,0,0,0,0,0,0,0,0,0,0,0,0,0,0,0,0,0,0,0,0,0,0,0,0,0,0,0,0,0,0,0,0,0,0,0,0,0,0,0,0,0,0,0,-7.6221,-7.6222,0,-7.6322,-7.6323,-7.6324,-7.6202,-7.6197,-7.6193,-7.6188,-7.6286,-7.6293,-7.63,0,0,0,0,0,0,0,0,0,0,0,0,0,-7.5917,-7.5923,-7.6221,-7.6222,-7.6224,-7.6322,-7.6323,-7.6325,-7.6202,-7.6197,-7.6191,-7.6186,-7.6284,-7.6292,-7.63,0,0,0,0,0,0,0,0,0,0,0,0,0,-7.6037,-7.5925,-7.6221,-7.6175,-7.6171,-7.6322,-7.6323,-7.6325,-7.6204,-7.6197,-7.619,-7.6184,-7.6281,-7.6291,-7.6302,-7.65,0,0,-7.6333,-7.6337,0,0,0,0,0,0,0,0,-7.603,-7.6048,-7.618,-7.6178,-7.6175,-7.6242,-7.6252,-7.6384,-7.6205,-7.6191,-7.6188,-7.618,-7.6277,-7.6287,-7.6321,-7.6505,-7.6509,-7.6334,-7.634,-7.6344,-7.6347,0,0,0,0,0,0,0,-7.6022,-7.6043,-7.6261,-7.6182,-7.6179,-7.6147,-7.6156,-7.6276,-7.6271,-7.6192,-7.6183,-7.6197,-7.6274,-7.6311,-7.6322,-7.651,-7.6333,-7.6342,-7.6349,-7.6353,-7.6862,-7.6869,0,0,0,0,0,0,-7.602,-7.6037,-7.6257,-7.6264,-7.6084,-7.6158,-7.6169,-7.6227,-7.6269,-7.6269,-7.6203,-7.6191,-7.6297,-7.631,-7.6325,-7.6561,-7.6344,-7.6354,-7.636,-7.6855,-7.6864,-7.6872,0,0,0,0,0,0,-7.6014,-7.604,-7.6253,-7.6148,-7.6173,-7.617,-7.6237,-7.6233,-7.627,-7.6277,-7.6275,-7.6242,-7.6292,-7.6311,-7.6458,-7.6562,-7.6358,-7.6368,-7.6846,-7.6858,-7.6868,-7.7033,0,0,0,0,0,0,-7.6005,-7.6039,-7.6116,-7.6151,-7.6179,-7.6387,-7.6244,-7.624,-7.6289,-7.6274,-7.6314,-7.6314,-7.6288,-7.6443,-7.6468,-7.6573,-7.6376,-7.6837,-7.6851,-7.6864,-7.7019,-7.7049,-7.7075,0,0,0,0,0,-7.5995,-7.6157,-7.612,-7.6148,-7.6275,-7.6393,-7.6409,-7.6378,-7.6298,-7.6374,-7.6379,-7.6312,-7.6547,-7.646,-7.6486,-7.6595,-7.683,-7.6847,-7.6863,-7.7006,-7.7043,-7.7074,0,0,0,0,0,0,-7.6132,-7.6161,-7.612,-7.6299,-7.6345,-7.6372,-7.6467,-7.6418,-7.6486,-7.6469,-7.6426,-7.6436,-7.6593,-7.6609,-7.6511,-7.679,-7.6675,-7.6698,-7.6774,-7.6809,-7.6837,-7.683,-7.6384,0,0,0,0,0,-7.6184,-7.6279,-7.6298,-7.6454,-7.6479,-7.647,-7.652,-7.6493,-7.6537,-7.6555,-7.6571,-7.6615,-7.6699,-7.6755,-7.6832,-7.702,-7.7026,-7.7108,-7.7136,-7.7159,-7.7179,-7.728,-7.7316,-7.6927,-7.6926,-7.6926,0,0,-7.629,-7.6318,-7.638,-7.6482,-7.6514,-7.6613,-7.6487,-7.6596,-7.6668,-7.6571,-7.6712,-7.6725,-7.6772,-7.6941,-7.7015,-7.6958,-7.7288,-7.718,-7.7199,-7.7206,-7.7301,-7.7337,-7.737,-7.6938,-7.6936,-7.6934,0,0,-7.6535,-7.6566,-7.6699,-7.6735,-7.6786,-7.6778,-7.6811,-7.6846,-7.6852,-7.6993,-7.6922,-7.7006,-7.7151,-7.7188,-7.7225,-7.7484,-7.7426,-7.7511,-7.7657,-7.7755,-7.7786,-7.7813,-7.7905,-7.7939,-7.7531,-7.7531,-7.7531,0,-7.6661,-7.6808,-7.6773,-7.6888,-7.6935,-7.6854,-7.6988,-7.7023,-7.7096,-7.713,-7.7065,-7.7246,-7.7271,-7.7447,-7.7511,-7.7544,-7.7578,-7.7506,-7.7784,-7.7811,-7.7836,-7.7923,-7.7958,-7.7541,-7.754,-7.7539,-7.7538,0,-7.6959,-7.7062,-7.7163,-7.7239,-7.7296,-7.742,-7.7403,-7.7466,-7.7433,-7.7433,-7.7576,-7.7605,-7.7687,-7.7726,-7.7695,-7.7898,-7.7861,-7.7792,-7.7675,-7.7884,-7.7965,-7.7998,-7.7555,-7.7552,-7.7549,-7.7546,0,0,-7.7293,-7.7349,-7.7386,-7.742,-7.7471,-7.7548,-7.7668,-7.775,-7.7804,-7.7857,-7.7956,-7.8081,-7.8017,-7.8059,-7.8031,-7.8118,-7.8321,-7.8037,-7.8037,-7.8089,-7.8547,-7.8599,-7.8639,-7.8283,-7.8289,-7.8294,-7.8543,0,-7.7538,-7.7748,-7.7721,-7.7921,-7.8015,-7.794,-7.8044,-7.8085,-7.8088,-7.8167,-7.8168,-7.8258,-7.8167,-7.8192,-7.8275,-7.8279,-7.8413,-7.8261,-7.8373,-7.8377,-7.8364,-7.8681,-7.8737,-7.8971,-7.8575,-7.858,-7.8584,0,-7.7852,-7.7919,-7.813,-7.8167,-7.8205,-7.8299,-7.8372,-7.8449,-7.8494,-7.849,-7.8539,-7.8495,-7.8613,-7.8495,-7.8657,-7.8554,-7.8598,-7.8607,-7.8616,-7.8625,-7.8493,-7.8699,-7.9044,-7.908,-7.8634,-7.863,-7.8626,0,-7.8075,-7.8217,-7.8362,-7.8392,-7.8439,-7.8507,-7.8529,-7.8568,-7.8619,-7.8682,-7.8714,-7.879,-7.8831,-7.889,-7.8867,-7.8783,-7.9033,-7.8913,-7.9032,-7.9033,-7.9088,-7.9085,-7.9445,-7.9117,-7.9116,-7.9116,-7.9115,0,-7.8352,-7.8483,-7.8463,-7.8552,-7.8696,-7.8663,-7.8807,-7.8819,-7.8854,-7.8943,-7.8882,-7.8966,-7.8931,-7.9012,-7.8995,-7.9131,-7.915,-7.9149,-7.9143,-7.9155,-7.9155,-7.9183,-7.9166,-7.9125,-7.9123,-7.9121,-7.9119,0,-7.8625,-7.8616,-7.8769,-7.8801,-7.8812,-7.8918,-7.8944,-7.9026,-7.9024,-7.9138,-7.9162,-7.9159,-7.9251,-7.9235,-7.9336,-7.9325,-7.9495,-7.9469,-7.9481,-7.9475,-7.9595,-7.9584,-7.9986,-8.0037,-7.9675,-7.9679,-7.9682,0,-7.8802,-7.8902,-7.8946,-7.9002,-7.903,-7.912,-7.9173,-7.9144,-7.92,-7.926,-7.9335,-7.9423,-7.9491,-7.9643,-7.9648,-7.9726,-7.9701,-7.9836,-7.9712,-7.9721,-7.9703,-7.9697,-7.9707,-7.9861,-7.9865,-7.9868,-7.9871,0,-7.9118,-7.9109,-7.9188,-7.9267,-7.9332,-7.9391,-7.9444,-7.9493,-7.9468,-7.9535,-7.963,-7.9684,-7.9789,-7.9876,-7.9949,-7.9969,-7.9917,-7.991,-7.9942,-7.9955,-7.9958,-7.9958,-7.9548,-7.9901,-7.9898,-7.9896,-7.9894,-7.9893,-7.9348,-7.9434,-7.9478,-7.9568,-7.9606,-7.9657,-7.9737,-7.9746,-7.9826,-7.991,-7.9887,-7.9996,-8.0037,-8.0129,-8.0158,-8.0241,-8.019,-8.0236,-8.0248,-8.0259,-8.0274,-7.9945,-8.0254,-8.0253,-8.0252,-8.0251,-8.0251,0,-7.9661,-7.9686,-7.977,-7.9847,-7.9918,-7.9864,-7.992,-7.9983,-8.0079,-8.0124,-8.0193,-8.0303,-8.0387,-8.04,-8.048,-8.0544,-8.0521,-8.0566,-8.056,-8.0566,-8.0315,-8.028,-8.0582,-8.0582,-8.0582,-8.0582,-8.0582,-8.0582,-7.9832,-7.9974,-7.997,-8.013,-8.0153,-8.026,-8.0297,-8.0344,-8.0379,-8.0505,-8.0576,-8.0584,-8.0616,-8.0698,-8.0772,-8.0774,-8.0806,-8.086,-8.0852,-8.0617,-8.0584,-8.0552,-8.0519,-8.0867,-8.0867,-8.1096,-8.1098,-8.11]}]]